Weather observations for the past three days for
Asheville, Asheville Regional Airport
Metric (Imperial)
Date Time (edt) Wind (kph) Vis. (km) Weather Sky Cond. Temperature (ºC) Relative Humidity Wind Chill (°C) Heat Index (°C) Pressure Precipitation (cm)
Air Dwpt 6 hour altimeter (cm) sea level (mb) 1 hr 3 hr 6 hr
Max. Min.
25 00:54 Calm 16.09 Partly Cloudy SCT100 18.9 17.8 93% 76.15 1012.6
24 23:54 E 9 16.09 Light Rain SCT075 OVC100 19.4 18.3 93% 76.15 1012.6 0.05
24 22:54 Calm 16.09 Overcast OVC100 20.6 17.8 84% 76.2 1013.3
24 21:54 SE 6 16.09 Partly Cloudy SCT110 20 17.8 87% 76.12 1012.4
24 20:54 SE 9 16.09 Fair CLR 20 17.2 84% 76.1 1012.4
24 19:54 Calm 16.09 Partly Cloudy FEW047 SCT065 23.9 15 29.4 22.8 58% 25 76.02 1011.2
24 18:54 N 13 16.09 Thunderstorm in Vicinity SCT050 26.1 16.1 54% 27 76.05 1011.4
24 17:54 N 20 G 33 16.09 Fair CLR 27.8 16.1 49% 28 76.07 1011.5
24 16:54 NW 11 G 33 16.09 Fair CLR 27.8 15.6 47% 28 76.07 1011.5
24 15:54 Vrbl 6 16.09 Fair CLR 27.8 16.1 49% 28 76.1 1011.7
24 14:54 Vrbl 7 16.09 A Few Clouds FEW045 FEW060 27.2 16.7 53% 28 76.15 1012.5
24 13:54 Vrbl 7 16.09 Fair CLR 27.2 16.7 27.2 18.3 53% 28 76.17 1012.8
24 12:54 N 15 16.09 Fair CLR 26.1 16.7 56% 27 76.23 1013.5
24 11:54 Calm 16.09 Fair CLR 25 17.2 62% 26 76.25 1014.1
24 10:54 NW 11 16.09 Partly Cloudy SCT037 22.8 17.2 71% 76.25 1014.2
24 09:54 N 13 16.09 Mostly Cloudy BKN042 21.7 17.2 76% 76.25 1014.2
24 08:54 N 9 16.09 Overcast OVC043 20 17.2 84% 76.25 1014.4
24 07:54 N 15 16.09 Overcast FEW002 BKN041 OVC055 18.3 17.2 18.3 17.2 93% 76.23 1014.0 0.15
24 06:54 N 15 2.01 Fog/Mist OVC002 17.2 16.7 97% 76.17 1013.5
24 05:54 N 11 2.82 Fog/Mist OVC002 17.2 16.7 97% 76.12 1013.0
24 04:54 NW 6 11.27 Mostly Cloudy BKN002 17.2 16.7 97% 76.17 1013.2 0.15
24 03:54 Calm 16.09 Overcast BKN003 OVC100 17.8 17.2 96% 76.17 1013.2
24 02:54 N 9 16.09 Light Rain SCT003 BKN100 BKN110 17.8 17.2 96% 76.23 1013.8 0.15
24 01:54 NW 9 8.05 Light Rain Fog/Mist SCT006 BKN060 OVC095 17.8 17.2 19.4 17.8 96% 76.3 1015.1 0.08 0.41
24 00:54 S 6 14.48 Light Rain SCT005 OVC100 17.8 17.2 96% 76.33 1015.0
23 23:54 NW 6 16.09 A Few Clouds FEW100 17.8 17.2 96% 76.3 1014.5 0.3
23 22:54 NW 17 14.48 Light Rain FEW036 BKN070 OVC100 18.3 17.2 93% 76.4 1016.0 0.03
23 21:54 N 6 16.09 Light Rain FEW065 OVC085 18.3 17.2 93% 76.33 1015.2
23 20:54 N 15 16.09 Overcast BKN055 OVC065 18.9 17.2 90% 76.33 1015.5 0.03
23 19:54 NW 6 16.09 Light Rain BKN060 OVC070 19.4 16.7 25 18.3 84% 76.3 1015.0 0.36
23 18:54 W 6 16.09 Mostly Cloudy FEW060 BKN090 20.6 16.7 78% 76.3 1015.2
23 17:54 SW 13 16.09 Light Rain FEW032 BKN070 OVC090 18.9 16.7 87% 76.35 1016.2 0.25
23 16:54 S 11 9.66 Thunderstorm in Vicinity Light Rain FEW070 BKN090 OVC100 21.7 18.9 84% 76.35 1015.6 0.1
23 15:54 SW 9 16.09 Mostly Cloudy FEW033 SCT040 BKN110 23.3 18.9 76% 76.35 1015.5
23 14:54 Calm 16.09 Fair CLR 25 17.2 62% 26 76.35 1015.3 0.1
23 13:54 Vrbl 7 4.83 Thunderstorm Heavy Rain FEW055 BKN075 OVC110 22.2 18.9 27.2 17.8 82% 76.43 1016.5 0.1 0.1
23 12:54 N 13 16.09 Partly Cloudy FEW043 FEW050 SCT120 26.7 15 49% 27 76.38 1015.5
23 11:54 Calm 16.09 Fair CLR 26.1 16.7 56% 27 76.38 1015.5
23 10:54 Calm 16.09 Fair CLR 23.9 16.1 62% 25 76.43 1016.2
23 09:54 Calm 16.09 Fair CLR 21.1 16.7 76% 76.43 1016.5
23 08:54 S 6 16.09 Fair CLR 19.4 16.7 84% 76.48 1017.1
23 07:54 Calm 16.09 Fair CLR 17.8 15.6 20 16.7 87% 76.4 1016.2
23 06:54 W 6 16.09 Fair CLR 16.7 15 90% 76.38 1015.9
23 05:54 Calm 16.09 Fair CLR 16.7 15.6 93% 76.38 1015.7
23 04:54 SE 6 16.09 Fair CLR 17.2 15.6 90% 76.35 1015.4
23 03:54 Calm 16.09 Fair CLR 17.2 15.6 90% 76.35 1015.4
23 02:54 Calm 16.09 Fair CLR 18.3 16.1 87% 76.38 1015.4
23 01:54 NW 9 16.09 Fair CLR 20 15.6 23.9 19.4 76% 76.35 1015.1
23 00:54 Calm 16.09 Fair CLR 20 16.1 78% 76.33 1014.6
22 23:54 Calm 16.09 Fair CLR 20.6 15.6 73% 76.4 1015.9
22 22:54 S 7 16.09 A Few Clouds FEW045 21.1 15.6 71% 76.45 1016.6
22 21:54 S 7 16.09 Fair CLR 22.2 15.6 66% 76.45 1016.8
22 20:54 S 11 16.09 Fair CLR 22.8 16.1 66% 76.43 1016.5
22 19:54 S 15 16.09 Fair CLR 23.9 15.6 28.3 23.9 60% 25 76.33 1015.1
22 18:54 S 17 16.09 Fair CLR 25 15 54% 26 76.28 1014.8
22 17:54 S 19 16.09 Fair CLR 26.1 15 50% 27 76.3 1014.7
22 16:54 S 17 16.09 Fair CLR 27.2 15.6 49% 28 76.28 1014.5
22 15:54 S 19 16.09 Fair CLR 27.2 15 47% 27 76.33 1014.9
22 14:54 SE 15 16.09 A Few Clouds FEW050 27.8 15.6 47% 28 76.33 1015.0
22 13:54 Vrbl 11 16.09 A Few Clouds FEW042 FEW050 26.7 17.2 27.8 16.7 56% 27 76.38 1015.6
22 12:54 S 13 16.09 Fair CLR 27.2 16.7 53% 28 76.4 1015.9
22 11:54 S 13 16.09 Fair CLR 25.6 15 52% 26 76.45 1016.6
22 10:54 S 9 16.09 Fair CLR 23.9 17.2 66% 25 76.48 1017.1
22 09:54 Calm 16.09 Fair CLR 21.7 16.7 73% 76.48 1017.2
22 08:54 Calm 16.09 Fair CLR 18.9 16.1 84% 76.48 1017.4
22 07:54 SE 6 8.05 Fog/Mist CLR 16.7 15.6 17.8 15 93% 76.48 1017.4
22 06:54 Calm 3.22 Fog/Mist SCT002 15 14.4 96% 76.48 1017.4
22 05:54 Calm 16.09 Fair CLR 16.1 15 93% 76.45 1016.8
22 04:54 Calm 16.09 Fair CLR 15.6 14.4 93% 76.4 1016.2
22 03:54 Calm 16.09 Fair CLR 16.1 15 93% 76.38 1016.0
22 02:54 Calm 16.09 Fair CLR 16.7 15.6 93% 76.43 1016.3
22 01:54 Calm 16.09 Fair CLR 17.8 16.1 22.8 17.2 90% 76.4 1015.9
Date Time (edt) Wind (kph) Vis. (km) Weather Sky Cond. Air Dwpt Max. Min. Relative Humidity Wind Chill (°C) Heat Index (°C) altimeter (cm) sea level (mb) 1 hr 3 hr 6 hr
6 hour
Temperature (ºC) Pressure Precipitation (cm)